SL-14 DEB, 45315

Orbit data source: Space-Track

SL-14 DEB, 45315 is space debris in LEO originally from a launch on Thu, 15 Aug 1991 UTC launched from the Plesetsk Missile And Space Complex (PKMTR). Debris objects in space refer to the collection of defunct objects orbiting the Earth. Examples of debris include non-operational satellites, rocket bodies, and fragments generated from explosions, collisions, or faulty payload assembly.

Loading next visibility...
Identifier
45315, 1991-056BD
Orbit
LEO
Country
Flag of CISCIS
Related business
Manufacturer
Unknown
Mission
Spacecraft
Bus & Motor
Unknown
Mass
Unknown
Launch date (UTC)
1991-08-15 (34 years ago)
Launch vehicle
Unknown
Launch site
Plesetsk Missile And Space Complex (PKMTR)
Object type
Payload
Rocket body
Debris
Shape & HBR
Unknown shape, 0.1 m
Radar Cross Section
Small (<0.1 m²)

Expand to show TLE details & history
Last TLE update: 6 hours ago

TLE from 6 hours ago
0 SL-14 DEB
1 45315U 91056BD  25310.73976625  .00000770  00000-0  20112-2 0  9997
2 45315  82.5579 303.7103 0030064  33.4288 326.8723 13.15396935273361
Epoch: 2025-11-06T17:45Z
TLE epoch observation values (Epoch: 2025-11-06T17:45:15.804Z)
Latitude
-0.00009°
Longitude
-8.79931°
Altitude
1,186.09 km
Speed
7.27 km/s
True Right ascension
20h 14m 50s
True Declination
0° 00' 00"
Sunlit
Object was in daylight at epoch
Visualization orbit readout
Latitude
Unknown
Longitude
Unknown
Altitude
Unknown
Speed
Unknown
Apparent Right ascension
Unknown
Apparent Declination
Unknown
Sunlit
N/A
Visualization observer readout
Local Sidereal Time
19:25:12
Azimuth
Unknown
Elevation
Unknown
Doppler factor
Unknown
Orbital elements
Apogee altitude
1,222.382 km
Perigee altitude
1,176.818 km
Semi-major axis
7,577.737 km
Eccentricity
0.00301
Inclination
82.5579°
RAAN
303.7103°
Arg. of periapsis
33.4288°
True anomaly
326.68343°
Mean anomaly
326.8723°
Eccentric anomaly
326.77792°
Mean motion
3.29029 °/min
Orbital period
109.41 mins
BSTAR
0.0020112
Loading maneuver chart data...
Computing Atmospheric mass density...
Loading historical data...
Loading historical data...
Loading historical data...
Loading historical data...
Loading historical data...
Loading historical data...
Loading historical data...

Documentation

Showing up to 5 results
|